Vorticity
7 10 10 9 9 9 9 7 7 9 7 7 9 9 8 7 5 5 6 7 9 10 9 8 7 7 6 5 7 11 12 14 19 22 22 20 18 17 22 29 33 40 43 35 23 16 14 15 24 39 44 31 16 13 19 21 21 19 12 5 2 4 16 24 19 13 8 4 7 11 13 12 13 19 3 -19 -5 12 9 4 -3 -11 -15 -10 0
8 10 10 9 8 8 7 6 7 8 7 6 8 8 8 8 8 7 6 7 7 9 9 8 7 8 7 6 7 11 12 14 18 20 21 21 21 16 15 20 25 31 41 43 33 20 15 16 16 22 37 46 39 21 10 14 20 21 18 13 10 4 2 12 21 18 15 12 8 7 10 14 13 16 14 -8 -26 -18 -2 4 3 -2 -12 -18 -7
9 9 10 8 7 7 6 6 8 8 7 8 8 7 7 8 8 8 7 7 8 8 9 8 7 7 7 7 8 10 11 13 17 20 21 20 22 21 15 13 18 22 29 38 39 29 17 14 16 16 20 31 45 46 29 12 10 16 20 17 13 12 7 4 11 16 16 13 12 12 10 12 15 14 16 12 0 -5 -12 -16 1 18 21 11 -3
8 7 8 8 6 7 6 6 7 7 8 8 8 7 7 8 8 8 8 8 8 8 8 7 7 7 7 7 8 9 11 12 16 19 21 20 20 23 20 13 13 17 21 27 32 32 25 15 12 14 17 19 26 42 51 40 20 9 11 17 15 12 12 10 6 10 14 14 10 11 12 12 14 14 13 13 16 19 1 -24 -18 0 17 30 15
6 6 7 7 6 6 5 5 6 6 8 8 7 7 7 8 8 8 9 9 9 8 9 8 7 7 6 7 8 7 10 12 14 18 21 21 19 21 24 19 12 11 16 21 24 26 26 23 17 12 12 17 18 21 34 49 49 33 14 9 13 13 11 11 10 9 10 13 10 8 10 11 11 13 14 12 9 17 16 -4 -15 -17 -16 5 16
6 6 7 6 6 5 4 5 6 5 7 7 7 7 6 7 8 9 9 8 9 9 9 9 7 7 6 7 7 7 8 10 12 16 20 21 19 18 23 25 19 12 10 15 21 23 23 22 21 18 14 12 16 18 19 27 41 52 44 23 11 11 12 10 9 11 11 12 12 9 7 7 10 11 12 14 10 11 16 10 -1 -16 -30 -21 -2
7 6 6 5 4 4 5 5 5 5 6 6 7 8 7 7 8 9 9 8 9 9 9 9 8 7 6 6 7 7 8 8 9 12 16 19 20 18 18 23 26 20 13 10 14 19 22 22 21 20 21 17 15 15 18 19 21 32 47 48 32 16 10 10 10 10 10 11 12 12 9 6 7 10 11 12 11 10 11 14 12 -2 -16 -17 -15
7 6 5 4 4 4 5 5 5 6 6 6 7 8 8 7 7 8 10 9 9 10 9 9 10 8 6 6 6 7 8 8 9 10 12 15 18 18 16 17 23 25 22 15 11 13 16 20 22 21 21 21 20 18 16 18 20 20 27 41 48 39 22 10 8 10 12 11 10 12 13 10 6 5 9 12 11 11 10 10 14 10 -1 -8 -12
6 6 4 4 4 4 4 4 4 6 7 7 8 8 8 8 8 8 10 10 9 10 10 9 10 9 7 6 5 6 7 8 9 10 11 13 15 16 16 14 16 20 24 23 17 13 13 15 18 21 21 20 20 20 18 16 17 20 21 25 36 47 45 30 12 5 9 14 12 10 11 13 10 6 6 10 11 10 10 10 13 12 7 -1 -6
5 4 3 4 4 4 4 4 5 6 6 7 7 8 9 8 8 8 9 11 10 10 10 10 10 10 8 6 5 6 6 8 10 10 10 12 14 15 15 14 13 13 17 22 23 18 14 14 14 16 18 21 20 20 20 19 16 15 17 20 23 31 44 50 38 16 4 8 14 14 12 11 12 10 6 7 11 10 8 10 13 12 10 8 2
2 1 1 3 4 4 5 5 6 6 5 6 7 8 9 8 8 8 8 10 10 10 10 10 10 10 9 8 6 5 6 7 9 11 10 11 13 14 14 13 13 13 12 15 20 22 18 14 14 15 15 17 20 21 21 21 21 18 14 15 18 20 26 39 51 45 23 6 6 13 16 13 10 11 9 6 8 10 8 6 11 15 10 9 14
3 1 1 2 3 4 6 6 6 5 5 6 7 8 9 9 8 8 8 9 11 10 10 11 10 10 10 9 7 5 5 7 8 10 11 10 12 14 14 13 12 12 11 10 13 17 20 17 14 13 15 16 18 21 24 24 23 23 20 17 14 16 18 22 33 49 50 31 10 5 12 16 13 10 11 9 7 8 10 6 5 13 15 6 11
5 4 3 2 3 4 6 7 7 5 5 6 7 7 9 10 10 8 8 8 10 11 11 11 10 10 10 10 9 6 4 6 8 10 12 11 11 13 14 14 12 11 10 9 9 11 14 17 16 14 13 14 16 20 23 26 27 27 26 24 20 16 16 18 19 27 44 51 36 16 7 11 16 13 9 10 10 8 9 10 5 5 15 12 4
5 5 5 4 4 4 5 7 8 6 5 5 6 7 8 10 11 10 9 8 9 10 11 11 10 10 11 10 10 8 5 5 6 8 11 12 12 13 15 14 12 12 11 8 7 9 10 12 15 15 14 12 13 17 20 22 26 29 31 30 27 23 18 18 19 18 24 39 49 42 23 10 11 15 12 9 9 10 8 9 8 3 8 15 8
5 5 6 5 4 5 6 7 8 7 6 5 5 6 7 10 12 11 10 9 8 10 11 11 11 11 11 11 11 10 7 4 5 8 10 12 13 13 14 16 14 12 12 9 7 7 9 10 11 13 15 14 11 11 14 17 18 20 27 33 34 33 27 21 20 20 19 22 34 45 44 30 16 12 13 12 9 10 10 10 9 6 4 9 13
5 6 7 6 5 5 6 6 8 8 7 5 4 4 7 10 12 12 12 10 8 9 10 11 11 11 11 11 11 11 9 5 4 6 9 11 13 13 13 15 17 14 12 11 8 6 8 9 10 11 14 15 13 10 10 13 16 14 15 24 33 37 37 31 25 22 22 21 22 29 40 44 36 23 15 12 12 10 10 11 10 10 5 3 11
5 6 6 6 5 6 6 5 8 9 8 5 3 4 6 10 13 12 11 12 10 9 9 10 11 12 12 11 11 11 10 7 4 5 8 10 12 14 14 14 17 17 14 12 9 6 6 9 10 11 13 15 15 13 11 11 14 15 11 12 21 32 39 39 33 27 25 24 23 23 27 36 42 40 30 18 12 11 11 12 11 12 11 4 4
5 5 5 5 5 6 6 5 8 10 9 6 3 4 5 10 14 13 11 11 12 10 9 9 11 12 13 12 11 12 11 9 6 4 5 8 11 14 14 14 16 17 15 13 12 8 5 6 9 10 12 15 16 14 13 12 13 15 14 10 12 21 32 40 39 33 29 27 26 25 24 26 31 38 43 36 22 13 10 12 12 11 13 11 5
4 4 5 4 5 6 6 7 8 10 10 7 5 5 6 10 14 14 11 10 11 11 10 9 10 11 14 14 11 11 12 10 7 5 5 6 8 12 15 15 16 18 18 14 12 11 7 5 5 7 9 12 16 17 15 13 12 13 15 14 11 13 21 32 37 35 29 25 27 28 26 25 26 28 35 42 40 28 14 10 12 12 11 14 12
3 4 5 5 5 6 7 8 9 10 10 8 7 6 6 10 14 14 12 10 9 11 11 10 10 11 13 15 13 11 12 12 9 6 5 5 6 9 13 17 16 16 19 18 13 11 9 7 4 4 6 8 12 16 17 15 13 12 14 15 14 12 13 20 29 32 28 22 22 26 27 25 26 27 27 32 41 44 35 19 9 9 10 12 14
5 5 6 6 6 7 9 10 9 10 11 10 8 7 7 8 12 14 13 11 9 10 10 10 10 11 13 15 15 13 11 12 12 8 4 5 6 7 10 15 17 16 19 20 17 13 10 8 6 4 4 5 7 10 15 18 15 12 12 14 15 14 12 13 17 23 26 24 20 21 24 24 23 26 28 27 30 38 48 45 28 13 8 9 13
7 7 7 7 8 9 11 12 11 11 11 11 10 7 7 8 10 14 14 11 10 10 10 10 10 11 12 14 17 15 12 12 12 10 6 4 5 6 8 11 15 17 18 20 18 17 13 8 6 6 4 3 4 6 10 15 17 15 12 12 14 15 15 12 12 14 18 22 23 21 21 22 21 21 23 25 27 27 35 48 51 39 21 10 9
8 8 9 9 10 10 12 13 13 12 11 12 11 8 7 8 9 13 15 13 11 10 9 9 10 10 11 14 18 17 13 12 12 12 8 5 5 5 7 9 13 15 18 20 20 18 17 12 7 6 5 4 4 4 5 9 15 17 16 13 13 14 16 15 12 11 12 14 17 19 20 21 22 21 19 19 22 24 25 31 43 52 48 31 15
8 8 7 8 8 9 9 10 13 12 10 12 13 9 7 8 10 12 14 14 12 11 10 9 9 10 10 13 17 19 16 11 12 13 10 6 5 5 6 8 10 13 16 20 21 19 18 16 10 7 6 5 4 4 4 5 9 14 17 17 14 13 14 16 16 13 12 11 12 13 15 17 19 20 21 20 18 19 22 22 25 35 48 51 39
7 6 5 5 5 6 6 7 9 10 9 10 13 11 8 8 10 12 12 14 14 11 10 10 9 9 10 11 15 20 19 13 11 13 13 9 5 4 6 7 9 11 14 18 21 21 20 18 13 9 8 8 7 5 4 3 5 9 15 18 18 16 13 14 17 17 14 11 11 11 13 13 15 16 17 21 22 21 21 21 20 20 28 41 48
5 5 6 6 6 7 6 6 7 8 8 9 11 11 10 10 11 11 11 13 13 11 10 10 9 9 10 11 13 18 20 17 12 12 13 11 7 4 5 6 8 9 11 16 20 21 22 21 16 10 9 9 8 8 6 4 3 5 9 15 18 18 17 13 13 17 18 16 11 10 11 12 14 16 16 16 19 22 24 24 24 21 19 24 31
6 6 7 8 8 7 7 6 6 7 8 9 10 10 11 13 11 9 10 11 11 10 10 10 11 10 10 10 11 17 20 19 14 11 13 13 8 5 5 5 7 8 9 14 19 21 22 24 21 13 9 8 8 9 10 7 4 2 4 10 13 16 19 18 14 13 16 19 17 13 10 11 12 14 16 17 15 15 19 25 27 25 20 19 21
9 8 8 8 7 6 6 6 6 7 8 10 10 10 12 15 11 6 8 11 10 9 8 10 12 10 10 10 10 14 20 21 16 11 12 14 10 6 5 5 6 7 8 11 17 20 21 24 25 19 12 8 7 7 10 10 8 5 2 4 8 11 15 20 21 16 13 14 17 18 15 13 12 11 12 15 16 14 15 22 32 36 30 22 17
8 7 6 6 6 6 6 6 6 7 9 10 12 12 13 15 10 5 7 11 12 9 7 8 12 12 11 10 9 12 18 21 19 14 12 13 12 8 5 5 5 6 7 10 14 19 21 22 24 23 18 12 7 5 7 10 10 9 4 1 3 7 10 15 21 22 19 15 12 14 16 16 15 14 13 13 14 14 13 17 27 39 45 39 27
5 5 5 5 6 6 6 6 7 7 9 11 12 13 13 13 8 3 8 13 11 9 9 7 9 13 13 11 9 11 16 19 19 16 13 13 13 10 6 5 5 6 6 7 11 17 21 23 23 23 23 18 11 5 3 6 9 10 9 5 2 3 6 9 15 20 22 22 17 12 12 14 16 16 15 14 14 14 12 11 16 27 40 49 46
4 5 5 6 7 7 7 8 8 9 11 11 12 14 13 11 8 5 12 16 8 6 11 9 7 10 13 13 11 10 13 18 19 17 14 13 14 11 8 6 4 5 6 6 8 13 19 24 24 22 23 22 18 10 3 3 6 8 10 9 6 4 3 5 8 12 16 21 23 20 14 11 13 15 15 14 13 13 13 11 11 16 26 39 48
6 7 8 9 9 9 10 10 11 12 13 13 14 15 13 11 11 10 15 18 7 3 11 12 7 7 10 12 13 10 11 16 19 19 15 13 14 12 10 8 5 5 6 5 6 10 16 23 25 23 22 22 22 18 8 3 3 4 7 11 10 7 5 4 5 7 9 13 18 22 22 17 13 12 13 14 12 12 12 12 11 10 15 24 36
9 9 11 11 11 12 12 13 16 17 18 19 19 18 17 16 16 15 15 15 8 4 12 16 10 6 8 12 14 12 11 14 17 19 17 13 13 13 11 9 6 5 6 6 6 7 12 20 25 25 23 21 23 23 17 8 4 2 3 7 10 10 8 6 5 4 5 7 9 14 19 22 20 16 13 11 11 11 10 11 12 11 10 12 21
10 10 11 11 11 12 14 16 20 20 21 22 21 21 21 18 18 17 13 13 11 9 15 17 11 7 7 11 15 12 9 13 16 18 19 15 13 13 12 10 7 5 5 6 6 6 9 17 23 25 24 22 22 24 21 15 10 6 2 2 4 7 9 9 7 6 5 5 5 7 10 15 19 20 19 14 10 9 9 9 9 10 11 11 12
10 10 11 11 10 12 16 18 20 21 21 22 22 23 21 18 18 17 14 16 16 15 17 14 10 11 9 8 14 12 8 12 16 17 19 17 13 12 12 10 8 6 5 5 6 5 7 13 21 24 23 23 24 24 22 18 16 13 8 4 0 1 5 7 8 8 7 6 5 5 6 8 11 15 19 20 16 10 7 8 8 7 8 11 13
11 10 9 10 10 13 17 19 20 21 21 21 23 24 22 20 18 16 16 19 17 15 16 12 10 15 12 7 11 13 8 10 14 16 20 19 14 12 12 11 9 7 6 5 6 6 5 9 17 22 22 22 25 27 23 18 17 17 16 13 5 0 0 3 5 6 7 8 8 7 6 7 8 10 13 19 22 18 10 6 6 7 6 5 9
10 9 7 9 10 13 17 18 19 19 18 19 23 26 25 21 18 17 18 17 17 17 14 11 14 18 13 7 10 12 9 8 12 16 21 20 15 11 11 12 10 8 7 6 5 5 5 7 13 20 22 21 23 28 27 21 16 15 18 21 16 7 2 0 1 2 3 5 6 7 8 7 7 9 10 12 17 22 21 13 4 3 5 3 4
9 7 6 8 10 14 17 17 17 17 16 17 20 25 31 26 15 14 16 17 22 19 7 7 19 22 14 10 10 10 9 8 9 15 21 21 17 12 11 12 11 8 7 6 6 6 5 6 10 17 21 21 21 27 29 25 19 14 14 20 22 17 10 5 3 2 0 0 2 4 6 8 7 8 10 10 11 15 21 23 16 8 4 4 4
7 5 5 8 10 14 16 17 17 15 14 13 13 21 35 33 16 4 8 20 26 15 3 10 21 22 16 11 9 9 9 8 8 13 20 23 19 13 11 11 12 10 7 6 6 6 5 5 8 13 20 21 21 25 27 26 23 18 12 14 19 21 18 13 10 7 3 0 0 0 2 6 8 7 8 10 11 11 13 19 25 23 12 4 4
8 7 6 8 10 13 15 17 17 15 13 11 10 16 29 38 30 10 3 14 16 4 5 17 19 18 17 10 8 11 9 7 8 11 18 24 20 14 11 11 11 10 9 7 6 6 5 5 7 10 17 21 21 23 25 25 25 22 16 12 14 18 19 18 16 15 10 5 3 1 0 3 6 7 7 9 12 13 11 10 17 26 24 15 8
7 6 6 7 9 11 14 17 18 16 14 10 9 14 21 35 44 25 2 7 16 8 9 17 17 19 19 12 11 15 9 6 8 10 16 23 21 14 10 11 12 11 9 8 7 6 5 5 6 8 13 19 22 22 23 24 25 24 20 14 12 13 14 16 17 19 17 12 7 5 2 2 4 7 7 7 10 13 15 11 8 12 20 25 23
7 5 5 6 7 9 13 19 20 18 15 10 9 15 18 29 47 33 -1 -0 24 26 13 5 6 17 24 19 18 17 10 7 7 8 14 22 22 17 11 9 11 11 10 9 7 6 6 5 5 7 10 16 21 22 22 23 23 23 20 16 13 12 11 12 14 17 20 17 11 9 6 4 4 7 8 8 8 10 14 15 11 5 6 14 23
7 6 5 5 7 8 11 17 20 18 16 12 10 15 19 25 41 39 7 -14 -1 16 11 -5 -5 15 29 25 20 17 11 8 7 6 12 20 23 19 12 9 11 11 10 10 8 6 7 6 4 6 8 13 17 20 24 26 25 22 20 15 13 12 11 11 12 14 17 18 14 11 10 9 7 6 7 8 8 9 10 13 14 11 7 6 8
6 6 7 5 6 7 8 14 19 19 18 16 11 14 22 24 30 38 27 -4 -16 0 9 -3 -1 23 31 19 16 18 14 9 7 6 10 18 24 21 12 8 11 11 10 10 8 6 7 6 5 5 6 10 14 17 23 29 27 23 19 15 12 11 11 12 14 15 16 17 14 12 12 13 11 8 6 6 8 10 11 11 12 13 14 12 10
6 6 6 4 3 5 7 10 16 18 19 19 15 13 20 25 25 30 36 24 10 15 17 -0 -2 21 26 13 15 22 16 10 8 6 8 17 24 22 13 9 10 11 10 10 9 8 7 6 6 6 5 8 11 14 20 27 28 24 20 15 11 10 12 15 18 19 17 15 14 12 12 14 14 10 6 6 8 11 12 11 10 11 12 13 13
7 7 6 4 2 3 6 8 12 18 21 20 18 15 17 24 26 24 28 30 26 27 21 -3 -11 12 25 18 17 20 16 12 9 6 8 16 23 22 14 9 9 10 10 10 9 9 8 6 5 6 6 7 9 11 16 24 28 27 22 17 14 13 15 18 20 21 19 17 15 14 12 14 16 13 7 6 7 9 10 11 11 10 10 11 10
9 8 6 4 2 1 4 6 8 15 22 21 19 17 16 21 25 23 23 25 25 29 25 -1 -14 7 26 22 16 17 18 15 10 6 7 14 22 23 15 9 10 10 10 11 10 9 8 7 5 5 6 6 7 9 12 20 27 28 24 20 17 16 16 18 20 21 20 18 16 15 13 13 16 14 9 6 7 8 9 10 10 9 8 9 9
10 8 4 3 2 -0 2 6 7 11 20 23 21 18 16 19 23 24 24 24 23 27 24 5 -3 15 30 25 20 21 20 16 10 7 8 13 21 23 16 9 9 10 10 11 10 9 9 8 6 6 6 6 7 8 10 15 23 27 25 22 19 17 16 18 19 18 17 16 15 15 14 14 15 14 10 6 6 8 8 8 8 8 8 7 7
8 7 5 4 3 2 1 4 5 9 18 23 23 20 16 17 21 24 26 24 17 14 16 17 21 32 33 26 23 23 21 18 12 6 6 12 20 23 17 11 9 9 9 9 10 10 9 8 7 7 6 6 7 7 9 12 18 24 25 23 21 20 19 18 17 15 15 15 14 14 14 14 15 15 12 8 7 6 7 7 6 6 8 10 11
6 7 7 5 4 4 3 3 3 7 15 22 25 23 17 16 20 24 26 22 9 5 19 32 32 26 20 16 17 21 21 19 14 7 6 11 19 22 19 13 9 9 8 9 10 10 9 8 8 7 5 6 5 5 6 9 14 21 24 23 23 23 20 18 18 16 15 15 14 14 14 15 15 15 12 10 8 7 6 6 6 5 5 8 12
7 8 6 6 7 6 5 4 3 6 13 21 27 26 19 17 20 22 24 21 7 -1 10 19 11 5 8 10 10 16 21 19 15 10 7 10 17 22 20 14 11 9 8 8 10 10 9 9 8 7 6 6 6 6 6 7 10 16 21 23 25 25 22 19 18 17 16 14 13 12 12 12 14 14 13 11 10 8 7 6 5 5 5 7 11
Height
5672 5667 5661 5656 5651 5646 5641 5636 5630 5623 5616 5610 5605 5599 5592 5586 5578 5572 5565 5558 5551 5545 5538 5532 5525 5518 5511 5503 5495 5486 5478 5471 5464 5459 5454 5449 5444 5440 5437 5433 5430 5426 5425 5426 5427 5430 5433 5435 5437 5440 5443 5447 5450 5453 5457 5461 5465 5470 5475 5480 5486 5490 5495 5500 5508 5515 5523 5530 5537 5544 5549 5554 5558 5562 5567 5572 5578 5582 5586 5590 5593 5596 5601 5605 5608
5668 5663 5658 5652 5647 5642 5637 5632 5625 5619 5612 5606 5601 5594 5588 5581 5574 5567 5561 5554 5547 5541 5534 5528 5522 5516 5509 5501 5493 5484 5476 5469 5461 5455 5450 5445 5442 5438 5434 5431 5428 5424 5422 5421 5422 5424 5426 5428 5431 5433 5436 5439 5441 5444 5447 5451 5454 5458 5463 5469 5475 5481 5485 5490 5496 5503 5510 5517 5524 5532 5538 5541 5546 5551 5557 5563 5569 5574 5578 5581 5585 5589 5593 5598 5602
5664 5659 5654 5649 5643 5638 5633 5627 5621 5614 5608 5602 5596 5590 5583 5577 5570 5563 5557 5550 5543 5537 5530 5524 5518 5512 5506 5499 5492 5483 5475 5468 5461 5454 5447 5442 5439 5436 5432 5429 5426 5423 5420 5418 5418 5419 5421 5422 5424 5426 5428 5431 5433 5435 5438 5441 5444 5448 5452 5458 5463 5469 5475 5480 5486 5491 5496 5503 5512 5519 5523 5527 5534 5540 5546 5553 5559 5566 5571 5573 5577 5581 5584 5589 5595
5660 5655 5651 5645 5640 5634 5628 5622 5616 5610 5604 5599 5592 5586 5579 5573 5566 5560 5553 5546 5539 5533 5526 5520 5514 5509 5503 5497 5490 5482 5475 5467 5459 5453 5446 5441 5436 5434 5431 5427 5424 5421 5419 5417 5415 5415 5416 5417 5418 5420 5421 5423 5425 5427 5429 5432 5435 5438 5442 5447 5452 5457 5463 5469 5475 5480 5484 5492 5499 5504 5509 5516 5523 5527 5535 5544 5549 5556 5561 5564 5568 5572 5576 5580 5585
5657 5652 5647 5642 5636 5630 5624 5618 5612 5607 5601 5595 5588 5582 5575 5569 5563 5556 5549 5542 5535 5529 5523 5516 5510 5505 5499 5493 5487 5481 5474 5466 5458 5452 5445 5439 5434 5431 5428 5425 5422 5420 5417 5415 5413 5413 5412 5413 5413 5414 5415 5416 5418 5419 5421 5423 5426 5429 5433 5438 5442 5446 5451 5457 5463 5468 5473 5480 5486 5491 5497 5504 5510 5516 5525 5533 5538 5544 5551 5553 5557 5563 5568 5572 5575
5654 5649 5644 5638 5632 5626 5620 5614 5608 5603 5597 5591 5585 5578 5572 5565 5559 5552 5545 5538 5532 5526 5519 5513 5507 5501 5495 5489 5482 5477 5470 5464 5457 5451 5444 5439 5433 5429 5426 5423 5420 5417 5415 5413 5412 5410 5409 5409 5409 5409 5409 5410 5411 5412 5413 5415 5417 5420 5423 5428 5432 5436 5441 5446 5452 5456 5461 5468 5474 5479 5485 5492 5500 5507 5514 5522 5527 5532 5539 5542 5547 5552 5558 5563 5567
5650 5645 5640 5635 5629 5623 5617 5610 5605 5599 5594 5587 5581 5575 5568 5561 5555 5548 5542 5535 5529 5523 5516 5510 5504 5498 5492 5486 5479 5473 5467 5461 5455 5449 5443 5437 5432 5428 5424 5420 5417 5415 5413 5411 5409 5407 5406 5405 5404 5404 5404 5404 5405 5405 5406 5408 5409 5411 5413 5417 5422 5426 5431 5436 5441 5444 5448 5456 5462 5466 5473 5481 5490 5497 5501 5509 5516 5520 5526 5531 5537 5541 5545 5552 5558
5646 5642 5636 5631 5625 5619 5613 5607 5602 5596 5590 5584 5577 5571 5564 5558 5551 5545 5539 5532 5526 5519 5513 5507 5501 5495 5489 5482 5476 5470 5464 5458 5452 5446 5441 5435 5430 5426 5422 5419 5415 5412 5410 5408 5406 5404 5403 5401 5400 5400 5399 5399 5399 5399 5400 5400 5401 5403 5404 5406 5410 5414 5419 5425 5430 5434 5438 5443 5449 5455 5463 5470 5477 5485 5491 5498 5504 5509 5515 5520 5525 5530 5533 5540 5546
5642 5638 5632 5627 5621 5615 5610 5604 5598 5592 5586 5580 5574 5567 5560 5554 5548 5541 5535 5529 5522 5516 5510 5504 5497 5491 5485 5479 5473 5467 5462 5456 5450 5444 5438 5433 5428 5423 5420 5416 5413 5410 5407 5404 5402 5401 5399 5398 5396 5395 5395 5394 5394 5393 5393 5394 5394 5395 5396 5398 5400 5403 5407 5412 5418 5424 5427 5432 5437 5444 5452 5458 5465 5473 5480 5486 5491 5499 5505 5507 5512 5518 5524 5529 5533
5638 5634 5628 5623 5617 5611 5606 5601 5595 5589 5583 5576 5570 5563 5557 5550 5544 5537 5531 5525 5518 5512 5506 5500 5494 5488 5482 5476 5470 5465 5459 5453 5447 5442 5436 5430 5425 5421 5417 5413 5410 5407 5404 5401 5399 5397 5395 5394 5392 5391 5390 5389 5389 5388 5387 5387 5387 5387 5388 5390 5392 5394 5397 5401 5406 5412 5417 5421 5426 5432 5439 5447 5454 5461 5468 5474 5480 5487 5494 5497 5501 5508 5515 5520 5523
5635 5630 5625 5619 5613 5608 5603 5597 5591 5585 5579 5572 5566 5560 5553 5546 5540 5533 5527 5521 5514 5508 5502 5496 5490 5484 5479 5473 5468 5462 5456 5450 5445 5440 5434 5429 5423 5418 5414 5410 5407 5404 5401 5398 5396 5393 5391 5390 5388 5387 5386 5385 5384 5383 5382 5381 5381 5380 5381 5382 5383 5385 5387 5390 5394 5399 5405 5410 5415 5420 5427 5434 5442 5449 5456 5461 5468 5475 5482 5487 5491 5497 5504 5510 5515
5632 5626 5620 5615 5609 5604 5599 5593 5588 5582 5575 5569 5562 5556 5550 5543 5536 5529 5522 5516 5510 5504 5498 5492 5486 5481 5475 5470 5465 5459 5454 5448 5442 5437 5432 5427 5421 5416 5411 5407 5404 5401 5398 5395 5392 5390 5387 5385 5384 5382 5381 5380 5379 5377 5376 5375 5374 5374 5373 5374 5375 5376 5378 5381 5384 5388 5392 5398 5403 5408 5414 5421 5430 5438 5444 5449 5456 5463 5469 5476 5482 5486 5492 5501 5506
5628 5622 5617 5611 5605 5600 5595 5589 5584 5578 5572 5565 5559 5552 5545 5539 5532 5524 5518 5511 5506 5500 5494 5488 5483 5477 5472 5467 5462 5456 5451 5445 5440 5434 5429 5424 5419 5414 5409 5404 5401 5397 5394 5391 5388 5386 5384 5381 5379 5377 5376 5375 5373 5372 5370 5369 5368 5367 5366 5366 5367 5368 5369 5371 5374 5378 5381 5386 5391 5396 5402 5409 5417 5425 5431 5437 5444 5450 5457 5465 5472 5475 5480 5489 5495
5624 5618 5613 5607 5602 5596 5591 5585 5579 5574 5568 5561 5555 5548 5541 5534 5528 5520 5513 5507 5501 5496 5490 5485 5479 5474 5469 5463 5458 5453 5447 5442 5437 5431 5426 5421 5416 5411 5406 5402 5398 5394 5391 5387 5384 5382 5379 5377 5375 5373 5371 5369 5368 5366 5365 5363 5362 5361 5360 5359 5359 5359 5361 5362 5365 5368 5372 5376 5380 5385 5391 5397 5404 5411 5418 5425 5431 5438 5444 5452 5458 5463 5469 5478 5484
5619 5614 5609 5603 5598 5592 5586 5581 5575 5569 5563 5556 5550 5543 5537 5530 5524 5517 5510 5503 5497 5492 5486 5481 5475 5470 5465 5459 5454 5449 5444 5439 5433 5428 5423 5418 5413 5408 5403 5399 5395 5391 5388 5384 5381 5378 5375 5373 5370 5368 5366 5364 5362 5360 5359 5357 5356 5355 5354 5353 5352 5352 5352 5354 5356 5359 5363 5366 5370 5374 5379 5384 5391 5398 5405 5413 5419 5425 5432 5438 5444 5450 5458 5466 5471
5615 5610 5605 5599 5594 5588 5582 5575 5569 5563 5557 5551 5545 5539 5533 5526 5520 5513 5507 5500 5493 5488 5482 5476 5471 5465 5460 5455 5451 5446 5441 5436 5430 5425 5420 5415 5410 5405 5400 5396 5392 5389 5385 5382 5378 5375 5372 5369 5366 5364 5362 5360 5357 5355 5354 5352 5351 5350 5348 5347 5346 5345 5345 5346 5348 5351 5354 5357 5361 5365 5369 5373 5379 5385 5393 5400 5406 5412 5418 5425 5431 5438 5446 5453 5459
5611 5606 5601 5595 5589 5583 5577 5570 5564 5558 5552 5546 5540 5534 5528 5522 5516 5509 5502 5496 5489 5483 5477 5472 5467 5461 5456 5451 5446 5442 5437 5432 5427 5422 5417 5412 5407 5402 5397 5393 5389 5386 5382 5379 5376 5373 5370 5367 5364 5361 5359 5356 5354 5351 5349 5348 5346 5345 5343 5342 5341 5339 5339 5338 5339 5342 5346 5349 5353 5356 5360 5363 5368 5373 5380 5387 5393 5399 5405 5412 5418 5426 5433 5441 5447
5607 5601 5596 5590 5584 5578 5572 5566 5560 5553 5547 5541 5535 5529 5524 5517 5511 5504 5498 5491 5485 5478 5472 5467 5462 5457 5452 5447 5442 5438 5433 5429 5424 5418 5413 5408 5404 5399 5395 5390 5386 5383 5379 5376 5373 5370 5367 5364 5362 5359 5356 5353 5351 5348 5346 5344 5342 5341 5339 5338 5336 5335 5333 5332 5333 5335 5338 5341 5345 5348 5352 5355 5358 5362 5368 5374 5380 5387 5393 5399 5406 5413 5420 5428 5435
5602 5597 5591 5586 5580 5574 5568 5562 5555 5549 5543 5537 5531 5525 5519 5512 5506 5500 5493 5486 5480 5474 5468 5462 5457 5452 5447 5442 5438 5433 5429 5424 5420 5415 5410 5405 5400 5396 5392 5387 5383 5380 5376 5373 5370 5367 5365 5362 5359 5356 5353 5351 5348 5345 5343 5340 5338 5337 5335 5334 5333 5331 5330 5328 5328 5329 5332 5335 5338 5341 5344 5347 5350 5353 5357 5362 5368 5375 5381 5386 5393 5401 5407 5415 5422
5598 5592 5587 5581 5575 5569 5563 5557 5550 5544 5538 5532 5526 5519 5513 5507 5501 5495 5488 5482 5475 5469 5463 5457 5451 5446 5442 5437 5433 5429 5424 5420 5416 5411 5407 5402 5397 5393 5389 5384 5380 5377 5373 5370 5367 5364 5361 5359 5356 5353 5351 5348 5345 5342 5340 5337 5335 5333 5332 5330 5329 5328 5327 5326 5325 5326 5327 5329 5332 5335 5338 5340 5343 5346 5350 5353 5358 5363 5369 5374 5381 5388 5395 5402 5409
5593 5587 5582 5576 5570 5564 5558 5552 5545 5539 5533 5527 5521 5514 5508 5502 5495 5489 5483 5477 5471 5465 5459 5453 5447 5442 5437 5432 5428 5424 5420 5416 5412 5407 5403 5398 5394 5389 5385 5381 5377 5373 5370 5366 5363 5360 5357 5355 5353 5350 5348 5345 5342 5340 5337 5335 5332 5330 5328 5327 5326 5325 5324 5323 5323 5323 5324 5325 5327 5329 5332 5334 5337 5340 5343 5346 5350 5354 5359 5364 5370 5377 5384 5390 5396
5588 5582 5576 5570 5564 5558 5552 5546 5540 5534 5528 5522 5515 5509 5503 5496 5490 5484 5478 5472 5466 5460 5454 5449 5444 5438 5433 5428 5423 5419 5415 5411 5407 5403 5399 5395 5390 5386 5381 5377 5373 5369 5366 5363 5359 5356 5354 5351 5349 5347 5344 5342 5340 5337 5334 5332 5329 5327 5325 5324 5323 5322 5321 5321 5320 5320 5321 5322 5323 5325 5326 5328 5330 5333 5336 5339 5342 5346 5350 5355 5360 5366 5372 5378 5384
5583 5577 5571 5565 5559 5553 5547 5541 5535 5529 5523 5516 5510 5503 5497 5491 5484 5478 5473 5466 5461 5455 5449 5444 5439 5434 5429 5424 5419 5414 5410 5407 5403 5399 5395 5391 5387 5382 5378 5374 5370 5366 5362 5359 5356 5352 5350 5347 5345 5343 5341 5339 5337 5334 5332 5329 5327 5324 5322 5321 5320 5319 5318 5318 5317 5317 5318 5319 5320 5321 5322 5323 5325 5328 5330 5332 5335 5338 5342 5346 5351 5355 5360 5365 5370
5577 5571 5566 5559 5553 5547 5541 5535 5529 5523 5517 5511 5504 5498 5491 5485 5479 5473 5467 5461 5455 5450 5444 5439 5434 5429 5424 5419 5414 5410 5406 5402 5398 5394 5391 5387 5383 5379 5374 5370 5366 5362 5358 5355 5352 5349 5346 5343 5341 5339 5337 5335 5333 5331 5329 5327 5324 5322 5320 5318 5317 5316 5315 5314 5314 5314 5315 5315 5316 5317 5317 5319 5321 5322 5324 5326 5328 5331 5333 5337 5341 5344 5348 5353 5357
5572 5566 5560 5554 5548 5542 5535 5529 5523 5517 5511 5505 5499 5492 5486 5479 5473 5467 5462 5456 5450 5445 5439 5434 5429 5424 5419 5414 5410 5405 5401 5397 5393 5390 5386 5383 5379 5374 5370 5366 5362 5358 5354 5351 5347 5344 5341 5339 5337 5335 5333 5331 5329 5328 5326 5324 5322 5319 5317 5315 5314 5313 5312 5311 5311 5311 5311 5312 5312 5313 5314 5315 5316 5318 5319 5320 5322 5324 5326 5328 5331 5334 5338 5342 5345
5567 5560 5554 5548 5542 5536 5529 5523 5517 5511 5504 5498 5493 5487 5480 5474 5467 5462 5456 5450 5445 5440 5434 5428 5423 5418 5414 5409 5404 5400 5396 5392 5388 5385 5381 5378 5374 5370 5366 5362 5358 5354 5350 5346 5343 5340 5337 5335 5332 5330 5329 5327 5325 5324 5322 5321 5319 5317 5315 5313 5311 5310 5309 5308 5307 5307 5307 5308 5308 5308 5309 5310 5312 5313 5314 5315 5316 5318 5318 5320 5322 5324 5327 5330 5334
5561 5554 5548 5542 5535 5529 5523 5516 5510 5504 5497 5491 5486 5480 5474 5468 5462 5456 5450 5445 5439 5434 5428 5423 5418 5413 5408 5403 5399 5394 5390 5386 5382 5379 5376 5372 5369 5365 5361 5357 5353 5349 5346 5342 5339 5336 5333 5331 5328 5326 5324 5323 5321 5320 5318 5317 5315 5314 5312 5311 5309 5307 5306 5305 5304 5304 5303 5304 5304 5304 5305 5306 5306 5307 5308 5309 5310 5311 5312 5313 5313 5315 5317 5320 5323
5555 5548 5541 5535 5529 5522 5516 5510 5503 5497 5490 5484 5479 5473 5468 5462 5456 5449 5444 5439 5434 5428 5423 5417 5412 5407 5402 5398 5393 5389 5384 5380 5377 5373 5370 5367 5363 5360 5356 5353 5349 5345 5341 5338 5334 5331 5329 5326 5324 5321 5319 5318 5317 5315 5314 5313 5312 5310 5309 5308 5306 5305 5303 5302 5301 5300 5300 5300 5300 5300 5300 5301 5301 5302 5303 5304 5304 5305 5305 5305 5305 5306 5307 5309 5313
5549 5542 5535 5528 5522 5516 5509 5503 5496 5489 5483 5477 5471 5466 5460 5455 5449 5443 5437 5432 5427 5422 5417 5412 5407 5402 5397 5392 5387 5383 5379 5375 5371 5368 5365 5361 5358 5355 5352 5348 5345 5341 5337 5334 5330 5327 5324 5321 5319 5317 5315 5313 5312 5311 5310 5309 5308 5307 5306 5305 5303 5302 5300 5299 5298 5297 5296 5296 5296 5296 5296 5296 5296 5297 5297 5298 5298 5299 5299 5298 5298 5298 5298 5300 5302
5542 5535 5529 5522 5515 5509 5502 5495 5489 5482 5475 5470 5464 5458 5453 5448 5442 5436 5430 5425 5420 5416 5411 5406 5401 5396 5392 5387 5382 5378 5374 5370 5366 5363 5360 5356 5353 5350 5347 5344 5340 5337 5333 5330 5326 5323 5320 5317 5314 5312 5310 5308 5307 5306 5305 5304 5304 5303 5302 5301 5300 5299 5298 5296 5295 5294 5293 5292 5292 5291 5292 5292 5292 5292 5292 5292 5293 5293 5293 5292 5291 5291 5291 5292 5293
5536 5530 5523 5516 5509 5502 5495 5488 5481 5475 5468 5462 5456 5450 5445 5440 5434 5428 5423 5418 5413 5408 5404 5400 5395 5391 5386 5381 5377 5372 5368 5365 5361 5357 5354 5351 5348 5345 5342 5339 5336 5332 5329 5326 5322 5319 5316 5313 5310 5307 5305 5303 5302 5301 5300 5300 5299 5299 5298 5297 5296 5296 5295 5294 5292 5291 5290 5289 5288 5287 5287 5287 5287 5287 5287 5287 5287 5287 5287 5287 5286 5286 5286 5285 5286
5531 5524 5517 5510 5503 5496 5489 5481 5474 5467 5461 5454 5447 5442 5437 5432 5426 5421 5415 5411 5406 5401 5397 5393 5389 5385 5380 5376 5371 5367 5362 5359 5355 5352 5349 5346 5343 5340 5337 5335 5331 5328 5325 5321 5318 5315 5311 5309 5305 5302 5300 5298 5297 5296 5295 5295 5295 5294 5294 5293 5292 5291 5291 5290 5289 5288 5287 5286 5285 5284 5283 5283 5283 5283 5282 5282 5282 5282 5282 5282 5281 5281 5280 5280 5279
5525 5518 5511 5504 5497 5489 5482 5474 5467 5460 5453 5446 5439 5433 5428 5423 5418 5412 5407 5404 5399 5394 5390 5386 5382 5379 5375 5370 5366 5361 5357 5353 5350 5347 5344 5341 5338 5335 5332 5330 5327 5324 5321 5317 5314 5310 5307 5304 5301 5298 5295 5293 5292 5291 5290 5289 5289 5290 5290 5289 5288 5287 5287 5286 5285 5285 5284 5283 5282 5281 5280 5279 5278 5278 5278 5278 5277 5277 5277 5277 5277 5276 5275 5275 5274
5519 5513 5505 5497 5490 5483 5475 5468 5460 5453 5445 5438 5430 5424 5419 5414 5409 5404 5400 5396 5392 5387 5382 5378 5375 5372 5368 5365 5360 5355 5351 5348 5344 5341 5338 5335 5333 5330 5327 5325 5322 5319 5316 5313 5310 5306 5303 5300 5297 5294 5290 5288 5286 5286 5285 5284 5284 5284 5285 5285 5284 5283 5283 5282 5282 5281 5280 5279 5278 5277 5276 5275 5274 5274 5273 5273 5273 5272 5272 5272 5272 5271 5271 5270 5269
5512 5506 5499 5491 5483 5475 5468 5460 5453 5445 5437 5429 5422 5416 5411 5406 5401 5396 5392 5388 5384 5380 5375 5371 5368 5365 5362 5359 5354 5350 5346 5342 5339 5335 5333 5330 5328 5325 5322 5320 5317 5314 5312 5309 5305 5302 5299 5296 5293 5290 5286 5283 5281 5281 5280 5279 5278 5279 5279 5280 5280 5279 5278 5278 5277 5277 5276 5275 5275 5274 5273 5272 5271 5270 5269 5269 5268 5268 5268 5268 5267 5266 5266 5266 5265
5504 5497 5490 5483 5475 5468 5460 5452 5445 5437 5429 5421 5414 5408 5402 5397 5393 5388 5384 5381 5377 5372 5368 5365 5361 5358 5356 5352 5349 5344 5340 5336 5333 5330 5327 5325 5322 5320 5317 5315 5312 5309 5307 5304 5301 5298 5295 5292 5289 5286 5282 5279 5276 5275 5275 5273 5273 5273 5274 5275 5275 5274 5274 5273 5273 5273 5272 5271 5271 5270 5269 5268 5267 5266 5266 5265 5264 5264 5264 5263 5263 5262 5262 5261 5260
5498 5491 5485 5476 5468 5460 5452 5444 5436 5429 5421 5414 5407 5401 5395 5390 5385 5380 5376 5373 5369 5366 5362 5359 5355 5352 5349 5346 5343 5339 5335 5331 5328 5325 5322 5320 5317 5315 5312 5310 5307 5305 5302 5300 5297 5294 5291 5288 5285 5282 5279 5275 5272 5271 5270 5269 5268 5268 5268 5270 5270 5269 5268 5268 5268 5268 5268 5267 5267 5266 5265 5264 5263 5263 5262 5261 5260 5260 5259 5258 5258 5258 5257 5257 5256
5491 5484 5478 5470 5461 5452 5444 5436 5428 5421 5413 5406 5400 5393 5388 5383 5378 5374 5370 5366 5362 5359 5355 5352 5348 5345 5343 5340 5337 5333 5329 5326 5322 5320 5317 5314 5312 5310 5307 5305 5302 5300 5298 5295 5292 5289 5287 5284 5281 5278 5275 5271 5268 5266 5265 5264 5263 5263 5263 5264 5265 5263 5263 5262 5262 5263 5263 5263 5263 5262 5261 5260 5259 5258 5258 5257 5256 5256 5255 5254 5253 5253 5253 5252 5251
5486 5476 5469 5461 5453 5445 5436 5428 5420 5413 5406 5399 5393 5386 5381 5375 5371 5367 5363 5359 5355 5352 5349 5345 5342 5339 5336 5334 5331 5327 5324 5320 5317 5314 5312 5309 5307 5305 5302 5300 5297 5295 5293 5291 5288 5285 5283 5280 5277 5275 5272 5268 5264 5261 5260 5259 5258 5258 5258 5259 5259 5259 5257 5257 5257 5257 5258 5258 5258 5257 5257 5256 5255 5254 5254 5253 5252 5252 5251 5250 5249 5249 5248 5247 5247
5477 5470 5463 5455 5446 5437 5428 5420 5413 5406 5399 5393 5386 5380 5374 5368 5363 5359 5355 5352 5349 5346 5342 5338 5336 5333 5330 5327 5325 5321 5319 5315 5312 5309 5306 5304 5301 5299 5297 5295 5293 5290 5288 5286 5284 5281 5278 5276 5273 5271 5268 5265 5261 5258 5256 5254 5253 5253 5253 5254 5254 5254 5253 5251 5251 5252 5252 5252 5252 5252 5252 5252 5251 5250 5249 5249 5248 5248 5247 5246 5245 5245 5244 5243 5243
5468 5461 5455 5448 5440 5430 5421 5414 5406 5399 5392 5385 5379 5373 5367 5360 5356 5351 5348 5345 5342 5339 5335 5332 5330 5326 5324 5321 5318 5316 5313 5310 5307 5304 5301 5298 5296 5294 5292 5290 5288 5286 5284 5282 5279 5277 5274 5272 5270 5267 5265 5262 5258 5255 5252 5250 5249 5248 5248 5249 5249 5249 5248 5247 5246 5247 5247 5247 5247 5247 5247 5247 5247 5247 5246 5245 5244 5244 5243 5243 5242 5241 5240 5239 5239
5463 5455 5447 5439 5432 5424 5415 5407 5399 5391 5384 5377 5372 5366 5359 5353 5349 5344 5340 5338 5335 5331 5328 5326 5323 5320 5317 5315 5312 5310 5307 5304 5302 5299 5296 5293 5291 5289 5287 5285 5283 5281 5279 5277 5275 5273 5270 5268 5266 5264 5261 5259 5255 5252 5248 5246 5244 5244 5244 5244 5244 5244 5244 5243 5243 5242 5242 5241 5241 5241 5242 5243 5243 5243 5242 5241 5240 5240 5240 5239 5238 5237 5236 5236 5235
5456 5447 5439 5431 5424 5417 5408 5400 5392 5384 5377 5370 5365 5359 5353 5347 5341 5336 5333 5332 5328 5324 5322 5320 5317 5314 5311 5308 5306 5304 5301 5299 5297 5294 5291 5288 5286 5284 5282 5281 5279 5277 5275 5273 5271 5268 5266 5264 5262 5260 5258 5255 5252 5249 5246 5243 5241 5240 5239 5239 5239 5239 5239 5239 5238 5238 5237 5236 5236 5236 5237 5238 5239 5239 5238 5237 5237 5236 5236 5235 5235 5234 5234 5233 5232
5446 5438 5430 5423 5416 5408 5401 5393 5385 5377 5370 5364 5358 5352 5346 5340 5334 5329 5326 5324 5321 5318 5316 5314 5311 5308 5305 5302 5300 5297 5295 5293 5291 5289 5286 5283 5281 5279 5277 5276 5274 5272 5271 5269 5267 5265 5262 5260 5258 5256 5254 5252 5249 5246 5243 5240 5238 5236 5235 5235 5234 5234 5234 5234 5234 5233 5232 5231 5230 5230 5231 5233 5234 5235 5234 5234 5233 5233 5232 5232 5231 5231 5231 5230 5230
5437 5429 5422 5415 5408 5400 5393 5385 5378 5370 5363 5357 5351 5345 5339 5333 5327 5322 5319 5316 5314 5312 5310 5307 5305 5302 5298 5296 5294 5291 5289 5288 5286 5284 5281 5278 5276 5274 5273 5271 5270 5268 5266 5265 5263 5261 5259 5257 5254 5252 5250 5248 5246 5243 5240 5238 5235 5233 5232 5231 5230 5230 5229 5229 5229 5228 5227 5226 5226 5226 5227 5228 5230 5230 5230 5230 5230 5230 5229 5229 5228 5228 5227 5227 5227
5428 5421 5414 5408 5401 5393 5385 5378 5370 5363 5357 5351 5345 5339 5333 5327 5320 5316 5312 5309 5307 5305 5303 5301 5298 5296 5293 5290 5288 5285 5284 5282 5280 5279 5276 5273 5271 5269 5268 5266 5265 5263 5262 5260 5259 5257 5255 5253 5251 5249 5247 5244 5243 5241 5238 5235 5232 5230 5228 5227 5226 5226 5225 5224 5223 5223 5222 5222 5222 5222 5223 5224 5225 5226 5227 5227 5227 5227 5226 5226 5225 5225 5224 5224 5224
5419 5412 5404 5398 5391 5384 5377 5370 5363 5356 5350 5344 5338 5332 5326 5320 5315 5310 5306 5303 5301 5298 5296 5295 5292 5289 5286 5284 5282 5280 5278 5276 5275 5273 5271 5269 5266 5264 5263 5262 5260 5259 5257 5256 5254 5253 5251 5249 5247 5245 5243 5241 5239 5237 5235 5233 5230 5228 5226 5224 5223 5222 5221 5220 5219 5219 5219 5219 5219 5219 5219 5220 5221 5222 5223 5223 5224 5224 5224 5223 5223 5222 5222 5221 5221
5411 5404 5396 5388 5382 5376 5369 5362 5356 5349 5343 5337 5331 5325 5320 5314 5309 5304 5300 5297 5295 5292 5290 5288 5286 5283 5280 5278 5276 5274 5272 5271 5270 5268 5266 5264 5261 5259 5258 5257 5256 5255 5253 5252 5250 5249 5247 5245 5244 5242 5240 5238 5236 5234 5232 5230 5228 5225 5223 5221 5220 5219 5218 5217 5216 5215 5215 5215 5215 5215 5216 5216 5217 5218 5219 5220 5220 5220 5220 5220 5220 5220 5219 5219 5218
5402 5396 5389 5380 5372 5366 5360 5354 5348 5342 5336 5330 5324 5318 5313 5308 5303 5298 5295 5291 5289 5286 5284 5281 5279 5277 5274 5272 5270 5269 5267 5266 5264 5263 5261 5259 5257 5255 5253 5252 5251 5250 5249 5248 5246 5245 5243 5241 5240 5238 5237 5235 5233 5231 5229 5227 5225 5222 5220 5218 5217 5216 5215 5214 5213 5212 5212 5212 5212 5212 5212 5213 5213 5214 5215 5216 5216 5217 5217 5217 5217 5217 5217 5216 5216
5392 5386 5380 5373 5365 5357 5351 5346 5340 5334 5328 5323 5317 5311 5306 5301 5297 5292 5289 5286 5283 5281 5278 5275 5273 5271 5269 5267 5266 5264 5262 5261 5259 5258 5257 5255 5252 5250 5249 5248 5247 5246 5245 5243 5242 5241 5239 5238 5236 5235 5234 5232 5230 5228 5226 5224 5222 5220 5217 5215 5214 5213 5212 5211 5210 5210 5209 5209 5209 5209 5209 5209 5210 5211 5211 5212 5213 5213 5214 5214 5214 5214 5214 5213 5213
5381 5374 5369 5363 5357 5349 5342 5336 5332 5326 5321 5315 5310 5304 5299 5294 5290 5286 5283 5280 5278 5276 5273 5271 5269 5267 5265 5263 5261 5259 5257 5256 5254 5253 5252 5250 5248 5246 5245 5244 5243 5241 5240 5239 5238 5237 5235 5234 5233 5231 5230 5228 5227 5225 5223 5221 5219 5217 5215 5213 5211 5210 5209 5208 5208 5207 5207 5206 5206 5206 5206 5206 5206 5207 5208 5208 5209 5210 5210 5210 5210 5210 5210 5210 5210